Flag Weather past 2 weeks in Paradise, Nevada, U.S.A.

Now
60 °F

Passing clouds.


Feels Like: 60 °F
Forecast: 43 / 71 °F
Wind: 3 mph from South

Location: McCarran International Airport

Current Time: Nov 28, 2014 at 11:41:48 AM

Latest Report: Nov 28, 2014 at 10:56 AM


Visibility: 10 mi

Pressure: 30.01 "Hg

Humidity: 22%

Dew point: 21 °F

Location of ParadiseLocation

Historic Weather in Paradise — Graph

°F

Paradise temperature yesterday

Maximum temperature yesterday: 64 °F (at 12:56 PM)
Minimum temperature yesterday: 45 °F (at 5:56 AM)
Average temperature yesterday: 54 °F

Past Weeks' High & Low Weather Summary

 TemperatureHumidityPressure
High72 °F (Nov 13, 2:56 PM)52% (Nov 14, 4:56 AM)30.45 "Hg (Nov 14, 4:56 AM)
Low37 °F (Nov 17, 5:56 AM)8% (Nov 16, 1:56 PM)29.78 "Hg (Nov 14, 3:56 PM)
Average55 °F26%30.10 "Hg
* Reported Nov 13 9:56 AM — Nov 28 9:56 AM, Paradise, Weather by CustomWeather, © 2014

Note: Actual official high and low records may vary slightly from our data, if they occured in-between our weather recording intervals... More about our weather records

Advertising

Paradise weather history for previous 24 hours

 ConditionsComfort  
Time TempWeatherWind HumidityBarometerVisibility
9:56 AM
Nov 28
57 °FPassing clouds.3 mph26%30.04 "Hg10 mi
8:56 AM54 °FPassing clouds.3 mph29%30.06 "Hg10 mi
7:56 AM49 °FPassing clouds.6 mph33%30.06 "Hg10 mi
6:56 AM44 °FPassing clouds.7 mph40%30.06 "Hg10 mi
5:56 AM43 °FPassing clouds.7 mph40%30.06 "Hg10 mi
4:56 AM43 °FPassing clouds.7 mph40%30.06 "Hg10 mi
3:56 AM44 °FPassing clouds.8 mph40%30.06 "Hg10 mi
2:56 AM45 °FPassing clouds.6 mph40%30.07 "Hg10 mi
1:56 AM46 °FPassing clouds.6 mph35%30.07 "Hg10 mi
12:56 AM47 °FPassing clouds.10 mph36%30.07 "Hg10 mi
11:56 PM
Nov 27
48 °FPassing clouds.8 mph34%30.09 "Hg10 mi
10:56 PM49 °FPassing clouds.10 mph32%30.10 "Hg10 mi
9:56 PM50 °FPassing clouds.9 mph32%30.10 "Hg10 mi
8:56 PM51 °FPassing clouds.9 mph31%30.11 "Hg10 mi
7:56 PM53 °FPassing clouds.8 mph28%30.12 "Hg10 mi
6:56 PM56 °FPassing clouds.7 mph27%30.12 "Hg10 mi
5:56 PM59 °FPassing clouds.8 mph24%30.12 "Hg10 mi
4:56 PM60 °FPassing clouds.8 mph23%30.12 "Hg10 mi
3:56 PM63 °FPartly sunny.6 mph22%30.12 "Hg10 mi
2:56 PM64 °FPartly sunny.5 mph18%30.14 "Hg10 mi
1:56 PM64 °FPartly sunny.7 mph18%30.14 "Hg10 mi
12:56 PM64 °FPartly sunny.6 mph18%30.16 "Hg10 mi
11:56 AM63 °FPartly sunny.6 mph19%30.19 "Hg10 mi
Weather by CustomWeather, © 2014

See weather overviewHow to use our weather pages